Flag for West Bank Weather past 2 weeks in Hebron, West Bank

Now
79 °F

Scattered clouds.


Feels Like: 81 °F
Forecast: 64 / 77 °F
Wind: 3 mph from North

Location: Ben Gurion International Airport

Current Time: Jul 2, 2015 at 9:07:42 AM

Latest Report: Jul 2, 2015 at 8:20 AM


Visibility: N/A

Pressure: 29.89 "Hg

Humidity: 65%

Dew point: 66 °F

Location of HebronLocation

Historic Weather in Hebron — Graph

°F

Hebron temperature yesterday

Maximum temperature yesterday: 84 °F (at 12:50 PM)
Minimum temperature yesterday: 70 °F (at 3:50 AM)
Average temperature yesterday: 77 °F

Past Weeks' High & Low Weather Summary

 TemperatureHumidityPressure
High91 °F (Jun 27, 1:20 PM)83% (Jun 17, 11:50 PM)29.98 "Hg (Jun 17, 11:50 PM)
Low68 °F (Jun 22, 6:20 AM)21% (Jun 27, 6:50 PM)29.59 "Hg (Jun 27, 9:20 PM)
Average78 °F62%29.83 "Hg
* Reported Jun 17 7:20 AM — Jul 2 7:50 AM, Hebron, Weather by CustomWeather, © 2015

Note: Actual official high and low records may vary slightly from our data, if they occured in-between our weather recording intervals... More about our weather records

Advertising

Hebron weather history for previous 24 hours

 ConditionsComfort  
Time TempWeatherWind HumidityBarometerVisibility
7:50 AM
Thu, Jul 2
77 °FScattered clouds.2 mph69%29.89 "HgN/A
7:20 AM77 °FPartly sunny.1 mph69%29.89 "HgN/A
6:20 AM75 °FPassing clouds.5 mph74%29.89 "HgN/A
5:50 AM75 °FPassing clouds.6 mph74%29.89 "HgN/A
5:20 AM75 °FPassing clouds.6 mph74%29.89 "HgN/A
4:50 AM75 °FPassing clouds.5 mph74%29.89 "HgN/A
4:20 AM75 °FPassing clouds.2 mph74%29.89 "HgN/A
3:50 AM75 °FPassing clouds.3 mph74%29.89 "HgN/A
3:20 AM75 °FPassing clouds.3 mph74%29.89 "HgN/A
2:50 AM75 °FPassing clouds.3 mph74%29.89 "HgN/A
2:20 AM75 °FPassing clouds.3 mph74%29.89 "HgN/A
1:50 AM75 °FPassing clouds.2 mph74%29.89 "HgN/A
12:50 AM75 °FPassing clouds.2 mph74%29.89 "HgN/A
11:50 PM
Wed, Jul 1
75 °FPassing clouds.5 mph74%29.89 "HgN/A
11:20 PM75 °FPassing clouds.6 mph74%29.89 "HgN/A
10:50 PM75 °FPassing clouds.6 mph74%29.92 "HgN/A
10:20 PM75 °FPassing clouds.7 mph74%29.92 "HgN/A
9:50 PM77 °FClear.9 mph69%29.89 "Hg10 mi
9:20 PM77 °FClear.7 mph69%29.86 "Hg10 mi
8:50 PM77 °FClear.9 mph69%29.86 "Hg10 mi
8:20 PM77 °FSunny.10 mph69%29.86 "Hg10 mi
7:50 PM79 °FSunny.10 mph65%29.86 "Hg10 mi
7:20 PM79 °FSunny.10 mph65%29.86 "Hg10 mi
6:50 PM81 °FSunny.14 mph58%29.86 "Hg10 mi
6:20 PM81 °FSunny.14 mph62%29.86 "Hg10 mi
5:50 PM82 °FSunny.15 mph55%29.86 "Hg10 mi
5:20 PM82 °FSunny.16 mph58%29.86 "Hg10 mi
4:50 PM82 °FSunny.15 mph55%29.86 "Hg10 mi
4:20 PM82 °FSunny.16 mph55%29.86 "Hg10 mi
3:50 PM82 °FSunny.16 mph58%29.86 "Hg10 mi
3:20 PM84 °FSunny.16 mph55%29.89 "Hg10 mi
2:50 PM84 °FSunny.16 mph55%29.89 "Hg10 mi
2:20 PM84 °FSunny.16 mph55%29.89 "Hg10 mi
1:50 PM84 °FSunny.15 mph55%29.89 "Hg10 mi
1:20 PM84 °FSunny.13 mph51%29.92 "Hg10 mi
12:50 PM84 °FSunny.13 mph51%29.92 "Hg10 mi
12:20 PM82 °FSunny.10 mph55%29.92 "Hg10 mi
11:50 AM82 °FSunny.10 mph55%29.92 "Hg10 mi
11:20 AM82 °FSunny.12 mph51%29.95 "Hg10 mi
10:50 AM82 °FSunny.9 mph51%29.95 "Hg10 mi
10:20 AM81 °FSunny.8 mph54%29.95 "Hg10 mi
9:50 AM79 °FSunny.8 mph58%29.95 "Hg10 mi
9:20 AM79 °FSunny.10 mph58%29.95 "Hg10 mi
Weather by CustomWeather, © 2015

See weather overviewHow to use our weather pages